www.pogodaiklimat.ru

АРХИВ ПОГОДЫ в Волгограде

Время (UTC), дата Ветер
(напр.,м/с)
 
Видим.   Явления Облачность Т
(С)
Тd
(С)
f
(%)
Тe
(С)
Тes
(С)
Комфортность P
(гПа)
Po
(гПа)
Тmin
(С)
Tmax
(С)
R
(мм)
S
(см)
03 24.06 С 4 10 км ясно +20.4 +14.5 69 +23 +24 комфорт 1018.0 1002.3 +17.0
06 24.06 СВ 2 10 км ясно +25.7 +15.4 53 +29 +40 душно 1018.2 1002.8
09 24.06 СВ 5 10 км 5/5 1500 м
[Cu hum]
+28.5 +12.4 37 +30 +35 жарко 1017.6 1002.3
12 24.06 СВ 5 10 км 5/5 1500 м
[Cu hum]
+29.2 +10.8 32 +30 +33 жарко 1016.4 1001.2
15 24.06 С 6 10 км 4/4 1500 м
[Cu hum]
+28.6 +10.3 32 +29 +29 жарко 1016.1 1000.9 +30.4
18 24.06 С 4 10 км ясно +21.7 +12.3 55 +24 +24 комфорт 1017.6 1002.0
21 24.06 С 4 10 км 6/0
[Ci fib]
+19.2 +12.5 65 +20 +20 тепло 1018.2 1002.5
00 25.06 С 4 10 км 5/0
[Ci fib]
+16.8 +11.9 73 +16 +16 по сезону 1018.2 1002.3
03 25.06 СВ 3 10 км ясно +20.1 +12.6 62 +22 +24 комфорт 1018.6 1002.9 +16.1
06 25.06 С 5 10 км ясно +25.7 +10.3 38 +27 +33 жарко 1018.8 1003.4
09 25.06 С 4
{10}
10 км 5/5 1000 м
[Cu hum]
+28.0 +8.8 30 +28 +34 жарко 1018.3 1003.0
12 25.06 С 6
{10}
10 км 5/5 1500 м
[Cu hum]
+29.0 +10.2 31 +29 +31 жарко 1017.8 1002.6
15 25.06 С 5 10 км 4/4 1500 м
[Cu hum]
+28.5 +10.7 33 +29 +30 жарко 1017.5 1002.2 +29.9
18 25.06 С 3 10 км 3/0
[Ci fib]
+22.5 +12.5 53 +25 +25 комфорт 1018.5 1002.9
21 25.06 С 4 10 км ясно +20.1 +13.1 64 +22 +22 комфорт 1018.8 1003.1
00 26.06 С 1 10 км ясно +17.5 +13.2 76 +19 +19 тепло 1018.8 1003.0
03 26.06 СВ 3 10 км ясно +21.7 +13.9 61 +25 +26 комфорт 1018.8 1003.2 +16.9
06 26.06 С 4 10 км ясно +26.7 +13.1 43 +28 +36 жарко 1018.9 1003.5
09 26.06 С 5 10 км 4/4 1000 м
[Cu hum]
+29.6 +13.0 36 +31 +37 жарко 1017.9 1002.7
12 26.06 С 4 10 км 5/5 1500 м
[Cu hum]
+30.3 +14.0 37 +32 +36 жарко 1015.9 1000.8
15 26.06 С 5 10 км 4/4 1500 м
[Cu hum]
+30.1 +13.0 35 +31 +32 жарко 1014.8 999.7 +31.3
18 26.06 СЗ 3 10 км ясно +24.8 +14.3 52 +27 +27 жарко 1015.1 999.7
21 26.06 СЗ 2 10 км ясно +21.8 +14.5 63 +25 +25 комфорт 1014.8 999.3
00 27.06 З 3 10 км ясно +19.1 +14.6 75 +21 +21 комфорт 1014.4 998.7
03 27.06 СЗ 3 10 км ясно +22.0 +16.1 69 +26 +28 душно 1014.2 998.7 +18.3
06 27.06 С 4 10 км ясно +28.8 +17.4 50 +33 +41 очень
душно
1013.2 998.1
09 27.06 СЗ 4 10 км 4/4 1500 м
[Cu hum]
+31.0 +14.6 37 +33 +40 душно 1011.6 996.6
12 27.06 СВ 1 10 км ясно +33.3 +14.4 32 +35 +49 душно 1009.7 994.8
15 27.06 СЗ 4 10 км ясно +32.7 +12.4 29 +33 +34 жарко 1008.3 993.4 +33.8
18 27.06 СЗ 1 10 км ясно +28.2 +14.4 43 +30 +30 жарко 1008.2 993.1
21 27.06 З 2 10 км ясно +25.1 +14.9 53 +28 +28 жарко 1007.6 992.3
00 28.06 СВ 2 10 км ясно +22.3 +14.9 63 +26 +26 жарко 1007.6 992.2
03 28.06 СВ 2 10 км ясно +25.0 +17.0 61 +29 +31 душно 1007.7 992.4 +20.9
06 28.06 СВ 2 10 км 4/0
[Ac trans]
+30.8 +16.0 41 +34 +43 очень
душно
1006.9 991.9
09 28.06 СЗ 3 10 км слабый ливневой дождь 8/8 1500 м
[Cb calv]
+31.1 +18.8 48 +36 +39 очень
душно
1006.4 991.5
12 28.06 В 2 10 км {гроза, ливн. осадки} 5/5 1500 м
[Cb calv]
+33.2 +16.1 36 +36 +42 очень
душно
1005.0 990.2
15 28.06 СВ 3 10 км 9/4 1500 м
[Cb calv Ac trans Ci fib]
+31.8 +14.9 36 +34 +34 душно 1004.9 990.0 +34.2
18 28.06 СВ 4 10 км 6/0
[Ac trans]
+26.5 +16.7 55 +30 +30 душно 1005.8 990.7
21 28.06 В 7-11
{11}
10 км гроза без осадков 6/3 1500 м
[Cb cap Ac trans]
+25.5 +15.5 54 +29 +29 душно 1006.5 991.3
00 29.06 В 3
{13}
10 км гроза, ливневой дождь 8/5 900 м
[Cb cap Ac trans]
+20.6 +17.0 80 +24 +24 комфорт 1007.7 992.2
03 29.06 В 6 4000 м слабый ливневой дождь, в посл. час гроза 9/9 300 м
[Cb calv]
+19.4 +15.1 76 +21 +21 комфорт 1008.7 993.1 +19.3
06 29.06 В 8-10
{11}
10 км {гроза, ливн. осадки} 9/4 1500 м
[Cb calv Ac trans]
+20.7 +12.7 60 +23 +23 комфорт 1009.4 993.9 +18.6
09 29.06 В 8-10
{12}
10 км 8/4 1500 м
[Cb calv Ac trans]
+25.3 +13.8 49 +28 +29 жарко 1009.8 994.5
12 29.06 В 5
{12}
10 км 5/0
[Ac trans Ci fib]
+28.0 +12.8 39 +29 +34 жарко 1009.8 994.6
15 29.06 СВ 5
{10}
10 км 6/0
[Ac trans Ci fib]
+27.5 +11.9 38 +29 +29 жарко 1009.4 994.2 +28.4
18 29.06 В 4
{10}
10 км 9/3 1500 м
[Cb calv Ac trans Ci fib]
+23.6 +13.5 53 +26 +26 жарко 1010.2 994.8
21 29.06 В 3 10 км 6/3 1500 м
[Cb calv Ac trans]
+21.4 +13.3 60 +24 +24 комфорт 1010.3 994.8
00 30.06 В 6 10 км {гроза} 6/3 1500 м
[Cb calv Ac trans]
+20.1 +7.8 45 +21 +21 комфорт 1010.4 994.8
03 30.06 СЗ 2 10 км гроза, ливневой дождь 9/5 900 м
[Cb cap Ac trans Ci fib]
+18.3 +11.8 66 +19 +20 по сезону 1012.5 996.8 +18.3
06 30.06 ЮВ 6 10 км слабый ливневой дождь {гроза} 9/9 1000 м
[Cb cap]
+17.4 +13.1 76 +17 +17 холодно 1011.7 996.0 +16.3
09 30.06 В 6
{14}
10 км слабый ливневой дождь, в посл. час гроза 9/9 1000 м
[Cb cap]
+19.9 +18.4 91 +23 +23 комфорт 1011.2 995.6
12 30.06 СВ 2
{14}
10 км {гроза, ливн. осадки} 8/5 1500 м
[Sc Ci fib]
+25.9 +17.3 59 +30 +35 душно 1010.6 995.4
15 30.06 В 3 10 км 3/3 1000 м
[Sc Ci fib]
+26.3 +16.8 56 +30 +31 душно 1010.1 994.9 +27.0
18 30.06 В 2 10 км 4/0
[Ac trans]
+22.3 +18.3 78 +27 +27 душно 1011.1 995.7
21 30.06 В 4 10 км 6/4 1500 м
[Cb calv Ac trans]
+22.5 +15.4 64 +26 +26 жарко 1010.7 995.3
00 1.07 В 3 10 км 6/0
[Ac trans]
+20.5 +15.9 75 +24 +24 комфорт 1010.7 995.2

 

Местоположение метеостанции Волгоград (Волгоградская область, Россия): широта 48.78 долгота 44.37 высота над уровнем моря 134 м.

В архиве по умолчанию представлена погода в Волгограде за последнюю неделю. Архивные данные за месяц целиком и за предыдущие месяцы, начиная с января 2011 года, Вы можете получить, выбрав интересующий диапазон дат из раскрывающегося списка и нажав кнопку "Ввод!".

Внимание! Время в таблицах - всемирное. Для получения местного времени необходимо прибавить поправку, которая в Volgograd равна 3 ч.

Ветер - указаны скорость ветра в м/с - средняя за 10 мин, порывы в срок и между сроками (в фигурных скобках) и направление, откуда дует ветер: С - северный, СВ - северо-восточный, В - восточный, ЮВ - юго-восточный, Ю - южный, ЮЗ - юго-западный, З - западный, СЗ - северо-западный.
Видимость - горизонтальная дальность видимости в метрах или километрах. При видимости от 1 до 10 км при отсутствии осадков обычно наблюдается дымка, при ухудшении видимости до 1 км и менее - туман. В сухую погоду видимость может ухудшаться дымом, пылью или мглою.
Явления - указаны атмосферные явления, наблюдавшиеся в срок или в последний час перед сроком; фигурными скобками обозначены явления, наблюдавшиеся между сроками (за 1-3 часа до срока); квадратными скобками обозначены град или гололедные отложения с указанием их диаметра в мм.
Облачность - указаны через наклонную черту общая и нижняя облачность в баллах и высота нижней границы облаков в метрах; квадратными скобками обозначены формы облаков: Ci - перистые, Cs - перисто-слоистые, Cc - перисто-кучевые, Ac - высококучевые, As - высокослоистые, Sc - слоисто-кучевые, Ns - слоисто-дождевые, Cu - кучевые, Cb - кучево-дождевые. Подробнее классификацию облаков см. в Атласе облаков (PDF).
T - Температура воздуха - температура, измеренная на высоте 2 м над землей.
Td - Температура точки росы - температура, при понижении до которой содержащийся в воздухе водяной пар достигнет насыщения.
f - Относительная влажность воздуха - влажноcть воздуха, измеренная на высоте 2 м над землей.
Te - Эффективная температура - температура, которую ощущает одетый по сезону человек в тени. Характеристика душности погоды. При расчете учитывается влияние влажности воздуха и скорости ветра на теплоощущения человека.
Tes - Эффективная температура на солнце - температура, которую ощущает человек, с поправкой на солнечный нагрев. Характеристика знойности погоды. Зависит от высоты солнца над горизонтом, облачности и скорости ветра. Ночью, в пасмурную погоду, а также при ветре 12 м/с и более поправка равна нулю.
P - Атмосферное давление - приведенное к уровню моря атмосферное давление.
Po - Атмосферное давление - измеренное на уровне метеостанции атмосферное давление.
Tmin - Минимальная температура - минимум температуры воздуха на высоте 2 м над землей.
Tmax - Максимальная температура - максимум температуры воздуха на высоте 2 м над землей.
R - Количество осадков - Количество выпавших осадков, мм. При наведении курсора мыши на число - период времени, за который выпало указанное количество осадков.
S - Снежный покров - Высота снежного покрова, см. При наведении курсора мыши на число - состояние снежного покрова и степень покрытия местности в баллах.